ASNARO

Satellite information

Favourite Embed

Satellite Type and Status

PAYLOADIN ORBIT

Key statistics

Satellite ASNARO at a glance.

Uptime

3958

Days in orbit

Revolutions

≈ 15.2

Per day

Orbit

SSO

Sun Synchronous Orbit

Inclination

97.4

Latest

Satellite identification and parameters

Extended collection of information and parameters for ASNARO.

Object identification

Identified? True

Debris? False

Object name: ASNARO

International designator: 2014-070A

Object number (NORAD): 40298

Object ID (CCSDS): 40298

Country: JAPAN (JPN)

Current information (Y/N): Y

RCS size: LARGE

Orbital parameters

Period: 94.752 minutes

Inclination: 97.3751 deg

SMA: 6884.691 km

Apoapsis: 510.269 km

Periapsis: 502.843 km

RAAN: 327.2339 deg

Eccentricy: 0.00053936

Argument of periapsis: 104.09 deg

Mean anomaly: 256.0934 deg

Mean motion: 15.19763721 rev/day

Mean motion (dot): 0.00013852 rev/day2

B* drag term: 0.00064972719 1/REarth

Two-line elements (TLE)

Creation date: Sept. 6, 2025, 2:09 a.m.

Reference frame: TEME

Reference center: EARTH

Epoch: Sept. 5, 2025, 10:49 p.m. UTC

TLE line 0: 0 ASNARO

TLE line 1: 1 40298U 14070A 25248.95097934 .00013852 00000-0 64973-3 0 9993

TLE line 2: 2 40298 97.3751 327.2339 0005394 104.0900 256.0934 15.19763721600840

Live tracking on map

Real-time ground track for satellite ASNARO.

In-orbit conjunctions

There are no conjunctions computed for ASNARO, at the moment. Check back to stay up to date, as we update our databases every day.

Go to all conjunctions

Associated space launch

ASNARO was lifted into orbit during the mission ‘Dnepr 1 | ASNARO’, on board a Dnepr space rocket.

The launch took place on Nov. 6, 2014, 7:35 a.m. from 370/13.

For more information about the launch, click the button.

Launch to space Dnepr 1 | ASNARO
Dnepr 1 | ASNARO

Agency: N/A

Status: Launch Successful

Launch date: Nov. 6, 2014, 7:35 a.m. UTC

Rocket: Dnepr

Launch pad: 370/13

Location: Dombarovskiy, Russian Federation

...

Latest news about this satellite

There are no fresh news available about this satellite. Check back as we update our databases every day.


Newsletter sign-up

Weekly statistics, charts and insights to help you stay on top of the space industry.